Location: Navalmoral
(40.4603°N, 4.7686°W)
Time: 19:48:24
(UTC+00:00)

USA 186 - Pass Details

Date: 05 August 2024
Orbit: 372 x 420 km, 97.1° (Epoch: 13 September)

Event Time Altitude Azimuth Distance (km) Brightness Sun altitude
Rises 19:50:14 0° 160° (SSE) 2,217 5.0 -4.5°
Reaches altitude 10° 19:52:10 10° 157° (SSE) 1,371 3.9 -4.8°
Maximum altitude 19:55:03 60° 76° (ENE) 434 1.6 -5.3°
Drops below altitude 10° 19:57:57 10° 356° (N) 1,388 4.9 -5.8°
Sets 20:00:00 0° 353° (N) 2,281 6.0 -6.2°
